Location: Herm
(49.4830°N, 2.4500°W)
Time: 08:42:35
(UTC+00:00)

ISS - Visible Passes

Search period start: 23 February 2018 00:00
Search period end: 05 March 2018 00:00
Orbit: 402 x 407 km, 51.6° (Epoch: 23 February)

Date Brightness Start Highest point End Pass type
(mag) Time Alt. Az. Time Alt. Az. Time Alt. Az.
27 Feb -1.2 06:06:32 10° S 06:08:58 20° SE 06:11:25 10° E visible
28 Feb -0.9 05:15:34 10° SSE 05:16:55 12° SE 05:18:15 10° ESE visible
01 Mar -2.4 05:57:34 10° SW 06:00:36 36° SSE 06:03:39 10° E visible
02 Mar -1.8 05:06:45 16° S 05:08:26 23° SE 05:11:06 10° E visible
03 Mar -1.1 04:16:44 14° SE 04:16:44 14° SE 04:18:11 10° ESE visible
03 Mar -3.5 05:49:24 12° WSW 05:52:18 64° SSE 05:55:34 10° ENE visible
04 Mar -2.9 04:59:15 35° S 05:00:02 42° SSE 05:03:09 10° ENE visible
